www.pogodaiklimat.ru

Погода и климат >> Архив погоды >> Сербия >> Сремска-Митровица


ПОГОДА в Сремска-Митровице

  • Прогноз погоды в Сремска-Митровице
  • Монитор погоды в Сремска-Митровице

АРХИВ ПОГОДЫ в Сремска-Митровице

Время (UTC), дата Ветер
(напр.,м/с)
 
Видим.   Явления Облачность Т
(С)
Тd
(С)
f
(%)
Тe
(С)
Тes
(С)
Комфортность P
(гПа)
Po
(гПа)
Тmin
(С)
Tmax
(С)
R
(мм)
R24
(мм)
S
(см)
22 11.09 В 2 20 км 6/0
[Ac trans]
+16.8 +14.2 85 +17 +17 1023.3 1013.4
23 11.09 СВ 1 20 км 5/0
[Ci sp]
+16.4 +14.5 89 +17 +17 1023.9 1013.8
00 12.09 В 1 20 км 3/0
[Ci fib]
+16.0 +14.4 90 +17 +17 1023.5 1013.6
01 12.09 В 2 20 км 6/3 1000 м
[Sc Ci sp]
+14.9 +13.4 91 +15 +15 1023.7 1013.7
02 12.09 Ю 1 20 км 4/0
[Ci sp]
+14.6 +12.9 90 +15 +15 1024.0 1014.0
03 12.09 штиль 0 20 км 5/0
[Ci sp]
+13.3 +11.8 91 +13 +13 1024.2 1014.2
04 12.09 штиль 0 20 км 5/0
[Ac trans]
+12.6 +11.2 91 +12 +12 1024.5 1014.5
05 12.09 В 1 20 км 8/0
[Ac trans Ci sp]
+14.0 +12.5 91 +14 +14 1025.3 1015.3
06 12.09 ЮЗ 1 15 км 8/0
[Ac trans Ci sp]
+15.6 +14.6 94 +16 +17 1025.5 1015.6 +12.6
07 12.09 З 2 20 км 8/0
[Ac trans Ci sp]
+18.5 +15.5 83 +20 +23 1026.5 1016.7
09 12.09 ЮЗ 2 20 км 6/5 1000 м
[Cu med, cong Ci fib]
+23.2 +14.2 57 +27 +32 душно 1027.4 1017.7
12 12.09 С 3 20 км 3/3 1000 м
[Cu med, cong]
+27.4 +12.5 40 +29 +35 жарко 1026.8 1017.2
14 12.09 С 4 20 км 8/8 1000 м
[Cu Sc]
+26.8 +15.4 50 +30 +30 душно 1026.8 1017.2
15 12.09 С 3 20 км 1/0
[Ac trans]
+25.4 +12.9 46 +27 +29 жарко 1026.8 1017.2
16 12.09 С 2 20 км ясно +25.3 +14.3 51 +28 +28 жарко 1026.7 1017.1
17 12.09 З 1 20 км ясно +23.0 +15.2 61 +27 +27 душно 1027.0 1017.3
18 12.09 З 1 20 км ясно +21.2 +14.5 66 +24 +24 комфорт 1027.8 1018.0 +28.4
19 12.09 З 1 20 км ясно +19.0 +14.5 75 +21 +21 комфорт 1028.6 1018.7
20 12.09 З 2 20 км ясно +18.6 +14.1 75 +20 +20 1028.6 1018.8
21 12.09 СЗ 1 20 км ясно +18.8 +13.2 70 +21 +21 комфорт 1028.7 1018.9
22 12.09 СЗ 1 20 км ясно +18.2 +12.9 71 +20 +20 1028.9 1019.0
23 12.09 СЗ 2 20 км ясно +17.7 +12.9 73 +18 +18 1029.1 1019.2
00 13.09 СЗ 1 20 км ясно +15.0 +10.7 75 +16 +16 1029.4 1019.4
01 13.09 З 2 20 км ясно +14.1 +10.6 79 +14 +14 1029.9 1019.8
02 13.09 З 1 20 км ясно +13.3 +10.1 81 +13 +13 1029.8 1019.7
03 13.09 З 2 20 км ясно +13.0 +10.2 83 +12 +12 1029.6 1019.5
04 13.09 З 2 20 км ясно +12.4 +9.9 85 +11 +11 1029.8 1019.7
05 13.09 З 2 20 км ясно +13.0 +11.5 91 +12 +12 1030.2 1020.1
06 13.09 ЮЗ 2 20 км ясно +14.5 +13.0 91 +14 +16 1030.5 1020.4 +12.3
07 13.09 З 3 20 км ясно +17.4 +13.8 79 +17 +21 1030.4 1020.5
08 13.09 З 2 20 км ясно +20.7 +14.5 68 +24 +31 комфорт 1030.3 1020.5
09 13.09 З 3 20 км ясно +22.4 +15.2 64 +26 +34 жарко 1030.1 1020.3
10 13.09 З 3 20 км 3/3 1000 м
[Cu hum]
+24.2 +15.5 58 +27 +34 жарко 1029.6 1019.9
11 13.09 СЗ 3 20 км 3/3 1000 м
[Cu hum]
+25.4 +14.4 51 +28 +35 жарко 1029.0 1019.4
12 13.09 СЗ 2 20 км 3/3 1000 м
[Cu hum]
+26.2 +13.3 45 +28 +36 жарко 1028.6 1019.0
13 13.09 СЗ 3 20 км ясно +26.7 +13.2 43 +28 +35 жарко 1027.7 1018.1
14 13.09 СЗ 2 20 км ясно +27.2 +13.4 43 +29 +34 жарко 1027.4 1017.8
15 13.09 СЗ 2 20 км ясно +27.0 +11.9 39 +28 +31 жарко 1026.5 1016.9
16 13.09 СЗ 2 20 км ясно +26.8 +12.7 42 +28 +29 жарко 1026.6 1017.0
17 13.09 СЗ 1 20 км ясно +24.0 +12.3 48 +26 +26 жарко 1026.9 1017.2
18 13.09 СЗ 2 20 км ясно +20.0 +13.9 68 +23 +23 комфорт 1027.5 1017.7 +27.5
19 13.09 СЗ 1 20 км ясно +17.0 +12.9 77 +18 +18 1028.2 1018.3
20 13.09 ЮЗ 1 20 км ясно +15.0 +13.0 88 +15 +15 1028.8 1018.8
21 13.09 З 2 20 км ясно +15.0 +11.5 80 +15 +15 1028.9 1018.9
22 13.09 З 1 20 км ясно +14.6 +12.4 87 +15 +15 1028.8 1018.8
23 13.09 ЮЗ 2 20 км ясно +13.8 +11.9 88 +13 +13 1028.6 1018.6
00 14.09 З 1 20 км ясно +13.4 +11.9 91 +14 +14 1028.7 1018.6
01 14.09 ЮЗ 1 20 км ясно +12.3 +11.3 94 +12 +12 1028.6 1018.5
02 14.09 З 2 20 км ясно +12.2 +11.3 94 +11 +11 1028.4 1018.3
03 14.09 ЮЗ 1 20 км ясно +12.1 +11.4 95 +12 +12 1028.2 1018.1
04 14.09 З 1 20 км 3/3 1000 м
[Sc]
+12.1 +11.4 95 +12 +12 1028.3 1018.2
05 14.09 З 1 20 км 5/5 1000 м
[Sc]
+12.4 +11.4 94 +12 +12 1028.6 1018.5
06 14.09 З 2 20 км 8/8 1000 м
[Sc]
+14.5 +13.3 93 +14 +14 1028.3 1018.3 +12.0
07 14.09 З 3 20 км 8/8 1000 м
[Sc]
+17.9 +14.4 80 +18 +19 1028.7 1018.9
08 14.09 З 2 20 км ясно +20.9 +12.9 60 +24 +31 комфорт 1028.5 1018.7
09 14.09 З 3 20 км 3/3 1000 м
[Cu hum]
+23.1 +13.9 56 +27 +32 душно 1028.3 1018.6
10 14.09 СЗ 2 20 км 3/3 1000 м
[Cu hum]
+24.5 +14.1 52 +27 +35 жарко 1027.9 1018.2
11 14.09 С 2 20 км 8/8 1000 м
[Cu med, cong]
+24.9 +14.0 51 +27 +30 жарко 1027.6 1018.0
12 14.09 С 2 20 км 8/8 1000 м
[Cu med, cong]
+25.7 +14.0 48 +28 +30 жарко 1027.0 1017.4
13 14.09 С 2 20 км 8/8 1000 м
[Cu med, cong]
+26.3 +12.7 43 +28 +30 жарко 1026.6 1017.0
14 14.09 СВ 3 20 км 8/8 1000 м
[Cu med, cong]
+26.6 +12.9 43 +28 +29 жарко 1026.3 1016.7
15 14.09 С 3 20 км 8/8 1000 м
[Cu Sc]
+26.9 +12.4 41 +28 +29 жарко 1025.8 1016.2
16 14.09 С 2 20 км 5/5 1000 м
[Cu med, cong]
+25.5 +13.6 48 +28 +28 жарко 1025.8 1016.2
17 14.09 СЗ 1 20 км 5/5 1000 м
[Sc]
+22.7 +13.7 57 +26 +26 жарко 1026.1 1016.4
18 14.09 СЗ 1 20 км ясно +20.7 +13.6 64 +24 +24 комфорт 1026.6 1016.8 +28.2
19 14.09 С 1 20 км ясно +20.0 +14.6 71 +23 +23 комфорт 1027.2 1017.4
20 14.09 штиль 0 20 км ясно +17.4 +13.5 78 +17 +17 1027.6 1017.7
21 14.09 Ю 1 20 км ясно +16.0 +13.0 82 +17 +17 1027.8 1017.9
22 14.09 З 1 20 км ясно +15.0 +12.5 85 +16 +16 1027.9 1017.9
23 14.09 З 1 20 км ясно +13.8 +12.1 89 +14 +14 1027.9 1017.9
00 15.09 ЮЗ 1 20 км ясно +13.5 +12.1 91 +14 +14 1027.9 1017.9
01 15.09 З 2 20 км ясно +13.5 +12.3 92 +13 +13 1028.1 1018.1
02 15.09 ЮЗ 1 20 км ясно +12.0 +11.0 94 +12 +12 1028.2 1018.1
03 15.09 штиль 0 20 км ясно +11.5 +10.6 94 +11 +11 1027.6 1017.6
04 15.09 штиль 0 20 км ясно +11.1 +10.2 94 +10 +10 1027.6 1017.5
05 15.09 ЮЗ 1 20 км ясно +11.5 +10.6 94 +11 +11 1027.8 1017.7
06 15.09 З 1 20 км ясно +13.3 +12.3 94 +13 +15 1027.9 1017.9 +10.5
07 15.09 З 1 20 км ясно +17.0 +13.7 81 +18 +22 1027.9 1018.0
08 15.09 ЮЗ 1 20 км ясно +20.5 +13.4 64 +24 +32 комфорт 1027.8 1018.0
09 15.09 ЮЗ 2 20 км 1/1 1000 м
[Cu hum]
+23.5 +13.6 54 +26 +34 жарко 1027.5 1017.8
10 15.09 Ю 2 20 км 3/3 1000 м
[Cu hum]
+25.3 +12.6 45 +27 +35 жарко 1026.9 1017.3
11 15.09 С 1 20 км 3/3 1000 м
[Cu hum]
+25.3 +12.3 44 +27 +36 жарко 1026.3 1016.7
12 15.09 В 2 20 км 3/3 1000 м
[Cu hum]
+26.9 +10.7 36 +28 +35 жарко 1025.3 1015.7
13 15.09 ЮЗ 2 20 км 1/1 1000 м
[Cu hum]
+27.4 +11.4 37 +28 +35 жарко 1024.1 1014.6
14 15.09 ЮВ 2 20 км ясно +27.5 +11.1 36 +28 +33 жарко 1023.5 1014.0
15 15.09 Ю 2 20 км ясно +27.5 +10.9 35 +28 +30 жарко 1022.9 1013.4
16 15.09 З 1 20 км ясно +27.4 +11.2 36 +28 +29 жарко 1022.5 1013.0
17 15.09 С 1 20 км ясно +23.2 +12.0 49 +26 +26 жарко 1022.4 1012.8
18 15.09 СВ 2 20 км ясно +19.5 +12.4 64 +21 +21 комфорт 1022.5 1012.8 +28.1
19 15.09 В 2 20 км ясно +17.1 +12.2 73 +17 +17 1022.7 1012.8
20 15.09 СВ 1 20 км ясно +15.2 +11.8 80 +16 +16 1022.6 1012.6
21 15.09 ЮВ 1 20 км ясно +13.2 +11.1 87 +13 +13 1022.4 1012.4
22 15.09 СВ 1 20 км ясно +12.6 +10.9 89 +13 +13 1022.2 1012.2
23 15.09 ЮВ 1 20 км ясно +12.2 +10.4 89 +12 +12 1022.2 1012.1
00 16.09 СВ 2 20 км ясно +12.2 +10.8 91 +11 +11 1021.8 1011.7
01 16.09 СВ 1 20 км ясно +12.0 +11.0 94 +12 +12 1021.4 1011.3
02 16.09 Ю 1 20 км ясно +11.3 +10.4 94 +11 +11 1021.1 1011.0
03 16.09 штиль 0 20 км ясно +10.4 +9.7 95 +10 +10 1020.9 1010.8
04 16.09 СВ 1 20 км ясно +9.8 +9.1 95 +9 +9 1020.9 1010.8
05 16.09 В 1 20 км ясно +10.4 +9.3 93 +10 +10 1020.8 1010.7
06 16.09 штиль 0 20 км ясно +14.1 +12.2 88 +14 +16 1020.8 1010.8 +9.8
07 16.09 Ю 1 20 км ясно +17.5 +12.5 72 +19 +23 1020.4 1010.6
08 16.09 З 1 20 км ясно +21.4 +15.1 67 +25 +32 комфорт 1020.5 1010.8
09 16.09 Ю 2 20 км ясно +24.4 +15.2 56 +27 +37 жарко 1020.1 1010.5
10 16.09 Ю 1 20 км ясно +25.8 +13.4 46 +28 +41 жарко 1019.7 1010.1
11 16.09 СЗ 2 20 км ясно +26.8 +12.9 42 +28 +40 жарко 1019.0 1009.5
12 16.09 З 2 20 км ясно +28.3 +12.7 38 +30 +40 жарко 1018.4 1008.9
13 16.09 СЗ 1 20 км ясно +28.7 +12.6 37 +30 +39 жарко 1017.5 1008.1
14 16.09 З 2 20 км ясно +28.9 +12.3 36 +30 +35 жарко 1016.8 1007.4
15 16.09 С 1 20 км ясно +29.0 +12.2 35 +30 +33 жарко 1016.2 1006.8
16 16.09 ЮЗ 2 20 км ясно +28.2 +12.1 37 +29 +30 жарко 1015.8 1006.4
17 16.09 ЮЗ 1 20 км ясно +24.3 +14.0 53 +27 +27 жарко 1015.9 1006.3
18 16.09 С 1 20 км ясно +19.6 +14.0 70 +22 +22 комфорт 1016.1 1006.4 +29.6
19 16.09 СВ 2 20 км ясно +17.6 +13.3 76 +18 +18 1016.4 1006.6
20 16.09 СВ 2 20 км ясно +17.0 +12.9 77 +17 +17 1016.4 1006.6
21 16.09 В 1 20 км ясно +15.8 +11.9 78 +17 +17 1016.4 1006.6
22 16.09 ЮВ 1 20 км 3/0
[Ci fib]
+15.0 +11.6 80 +16 +16 1016.3 1006.4
23 16.09 СВ 2 20 км ясно +12.6 +9.5 81 +12 +12 1016.1 1006.2
00 17.09 В 1 20 км ясно +12.8 +9.8 82 +13 +13 1015.8 1005.9
01 17.09 СВ 2 20 км ясно +12.3 +9.8 85 +11 +11 1015.5 1005.6
02 17.09 СВ 1 20 км ясно +12.1 +9.6 85 +12 +12 1015.2 1005.3
03 17.09 штиль 0 20 км ясно +11.4 +9.8 90 +11 +11 1015.2 1005.2
04 17.09 СЗ 1 20 км ясно +10.6 +9.5 93 +10 +10 1015.1 1005.1
05 17.09 З 1 20 км 1/0
[Ci fib]
+11.2 +9.6 90 +11 +11 1015.4 1005.4
06 17.09 штиль 0 20 км 3/3 1000 м
[Sc]
+14.6 +12.2 86 +14 +15 1015.2 1005.4 +10.5
07 17.09 ЮВ 2 20 км 3/0
[Ac trans]
+18.2 +14.6 80 +19 +22 1015.5 1005.7
08 17.09 Ю 1 20 км 3/0
[Ac trans]
+21.6 +16.1 71 +25 +32 комфорт 1015.6 1006.0
09 17.09 ЮВ 2 20 км 1/0
[Ac trans]
+24.7 +14.4 53 +27 +36 жарко 1015.6 1006.1
10 17.09 ЮВ 2 20 км ясно +27.0 +13.3 43 +29 +40 жарко 1015.1 1005.6
11 17.09 Ю 2 20 км ясно +28.6 +12.8 38 +30 +41 жарко 1014.4 1005.0
12 17.09 Ю 2 20 км 3/0
[Ac trans]
+29.3 +12.8 36 +30 +39 жарко 1013.6 1004.2
13 17.09 В 2 15 км 3/1 1000 м
[Cu hum Ci fib]
+29.7 +11.6 33 +30 +37 жарко 1012.9 1003.6
14 17.09 СВ 1 15 км 1/1 1000 м
[Cu hum]
+29.9 +10.3 30 +30 +35 жарко 1012.1 1002.8
15 17.09 З 1 15 км ясно +29.9 +10.3 30 +30 +32 жарко 1011.9 1002.6
16 17.09 З 1 15 км ясно +28.6 +11.3 34 +29 +30 жарко 1011.7 1002.4
17 17.09 штиль 0 15 км 4/0
[Ac trans]
+24.3 +12.4 47 +26 +26 жарко 1011.7 1002.2
18 17.09 В 2 20 км 3/0
[Ac trans]
+22.8 +14.9 61 +27 +27 душно 1012.6 1003.0 +30.7
19 17.09 В 2 20 км ясно +19.2 +15.0 77 +21 +21 комфорт 1013.1 1003.4
20 17.09 В 2 20 км 3/0
[Ac trans]
+19.2 +14.2 73 +21 +21 комфорт 1013.3 1003.4
21 17.09 В 2 20 км 1/0
[Ac trans]
+18.0 +14.3 79 +19 +19 1013.3 1003.5
22 17.09 ЮВ 1 20 км 5/0
[Ac trans]
+17.5 +14.9 85 +19 +19 1013.6 1003.8
23 17.09 СВ 1 20 км 6/0
[Ac trans]
+16.5 +14.4 87 +17 +17 1013.6 1003.8
00 18.09 С 1 20 км 4/0
[Ac trans]
+15.4 +13.5 88 +16 +16 1014.3 1004.4
01 18.09 СВ 3 20 км 9/9 1000 м
[Sc]
+18.9 +14.9 78 +20 +20 1014.8 1005.1
02 18.09 С 4 20 км 9/9 1000 м
[Sc]
+18.4 +16.0 86 +19 +19 1015.5 1005.7
03 18.09 С 4 20 км 10/10 1000 м
[Sc]
+17.7 +14.8 83 +17 +17 1016.3 1006.5
04 18.09 С 5 20 км 10/10 1000 м
[Sc]
+16.4 +13.7 84 +15 +15 1017.5 1007.7
05 18.09 ЮВ 1 10 км дождь 10/10 1000 м
[Sc]
+14.9 +14.0 94 +15 +15 1019.5 1009.6
06 18.09 Ю 1 10 км слаб. дождь 10/10 600 м
[Cu Sc]
+14.5 +13.5 94 +15 +15 1020.7 1010.7 +13.5 2
07 18.09 ЮЗ 1 10 км слаб. дождь 10/8 1000 м
[Frnb As op]
+14.3 +13.6 96 +15 +15 1022.1 1012.2
08 18.09 З 1 10 км в посл. час дождь 10/10 1000 м
[Cu Sc]
+14.9 +13.2 90 +15 +15 1022.8 1012.9
09 18.09 З 1 20 км {дождь} 10/10 1000 м
[Cu Sc]
+15.1 +11.3 78 +16 +16 1023.3 1013.4
10 18.09 С 1 20 км 10/10 1000 м
[Cu Sc]
+15.5 +8.9 65 +16 +16 1023.3 1013.4
11 18.09 СЗ 1 20 км 10/10 1000 м
[Cu Sc]
+15.8 +7.7 59 +17 +17 1023.4 1013.5
12 18.09 З 1 20 км {дождь} 10/10 1000 м
[Cu Sc]
+15.9 +7.6 58 +17 +17 1023.3 1013.4 2
13 18.09 З 3 20 км 10/10 1000 м
[Cu Sc]
+16.1 +10.2 68 +16 +16 1022.9 1013.0
14 18.09 СЗ 2 20 км 10/10 1000 м
[Cu Sc]
+16.1 +8.7 61 +16 +16 1023.1 1013.2
15 18.09 СЗ 1 20 км 10/10 1000 м
[Sc]
+15.5 +8.6 63 +16 +16 1023.1 1013.2
16 18.09 З 1 20 км 10/10 1000 м
[Sc]
+15.1 +8.4 64 +16 +16 1022.9 1013.0
17 18.09 З 1 20 км 10/10 1000 м
[Sc]
+14.7 +9.7 72 +15 +15 1022.9 1013.0
18 18.09 З 1 20 км 10/10 1000 м
[Sc]
+14.4 +10.2 76 +15 +15 1023.4 1013.4 +16.3 2
19 18.09 СЗ 1 20 км 10/10 1000 м
[Sc]
+14.1 +12.1 88 +14 +14 1023.6 1013.6
20 18.09 СЗ 1 20 км 10/10 1000 м
[Sc]
+13.9 +12.4 91 +14 +14 1023.8 1013.8
21 18.09 штиль 0 20 км 8/8 1000 м
[Sc]
+12.9 +11.9 94 +12 +12 1023.7 1013.7
22 18.09 С 1 20 км 8/8 1000 м
[Sc]
+12.0 +11.1 94 +12 +12 1023.6 1013.6
23 18.09 С 1 20 км ясно +9.1 +8.4 95 +8 +8 1023.8 1013.6

 

Местоположение метеостанции Сремска-Митровица (Сербия): широта 45.10 долгота 19.55 высота над уровнем моря 83 м.

В архиве по умолчанию представлена погода в Сремска-Митровице за последнюю неделю. Архивные данные за месяц целиком и за предыдущие месяцы, начиная с января 2011 года, Вы можете получить, выбрав интересующий диапазон дат из раскрывающегося списка и нажав кнопку "Ввод!".


*Определитесь, кто Вы:
робот инопланетянин человек

Внимание! Время в таблицах - всемирное. Для получения местного времени необходимо прибавить поправку, которая равна 1 ч.

Смотрите также архив погоды в соседних городах и на ближайших метеорологических станциях:

Погода в Нови-Саде (Сербия) (35 км)
Погода в Белград аэропорту (Сербия) (65 км)
Погода в Лознице (Сербия) (66 км)
Погода в Градиште (Хорватия) (67 км)
Погода в Осиек аэропорту (Хорватия) (70 км)
Погода в Зренянине (Сербия) (74 км)
Погода в Белграде (Сербия) (80 км)
Погода в Сомборе (Сербия) (81 км)
Погода в Осиек-Чепине (Хорватия) (89 км)
Погода в Тузле (Босния и Герцеговина) (91 км)

Пояснения к столбцам:

Ветер - указаны скорость ветра в м/с - средняя за 10 мин, порывы в срок и между сроками (в фигурных скобках) и направление, откуда дует ветер: С - северный, СВ - северо-восточный, В - восточный, ЮВ - юго-восточный, Ю - южный, ЮЗ - юго-западный, З - западный, СЗ - северо-западный.
Видимость - горизонтальная дальность видимости в метрах или километрах. При видимости от 1 до 10 км при отсутствии осадков обычно наблюдается дымка, при ухудшении видимости до 1 км и менее - туман. В сухую погоду видимость может ухудшаться дымом, пылью или мглою.
Явления - указаны атмосферные явления, наблюдавшиеся в срок или в последний час перед сроком; фигурными скобками обозначены явления, наблюдавшиеся между сроками (за 1-3 часа до срока); квадратными скобками обозначены град или гололедные отложения с указанием их диаметра в мм.
Облачность - указаны через наклонную черту общая и нижняя облачность в баллах и высота нижней границы облаков в метрах; квадратными скобками обозначены формы облаков: Ci - перистые, Cs - перисто-слоистые, Cc - перисто-кучевые, Ac - высококучевые, As - высокослоистые, Sc - слоисто-кучевые, Ns - слоисто-дождевые, Cu - кучевые, Cb - кучево-дождевые. Подробнее классификацию облаков см. в Атласе облаков (PDF).
T - Температура воздуха - температура, измеренная на высоте 2 м над землей.
Td - Температура точки росы - температура, при понижении до которой содержащийся в воздухе водяной пар достигнет насыщения.
f - Относительная влажность воздуха - влажноcть воздуха, измеренная на высоте 2 м над землей.
Te - Эффективная температура - температура, которую ощущает одетый по сезону человек в тени. Характеристика душности погоды. При расчете учитывается влияние влажности воздуха и скорости ветра на теплоощущения человека.
Tes - Эффективная температура на солнце - температура, которую ощущает человек, с поправкой на солнечный нагрев. Характеристика знойности погоды. Зависит от высоты солнца над горизонтом, облачности и скорости ветра. Ночью, в пасмурную погоду, а также при ветре 12 м/с и более поправка равна нулю.
P - Атмосферное давление - приведенное к уровню моря атмосферное давление.
Po - Атмосферное давление - измеренное на уровне метеостанции атмосферное давление.
Tmin - Минимальная температура - минимум температуры воздуха на высоте 2 м над землей.
Tmax - Максимальная температура - максимум температуры воздуха на высоте 2 м над землей.
R - Количество осадков - Количество выпавших осадков за период времени, мм. При наведении курсора мыши на число - период времени, за который выпало указанное количество осадков.
R24 - Количество осадков - Количество выпавших осадков за 24 часа, мм.
S - Снежный покров - Высота снежного покрова, см. При наведении курсора мыши на число - состояние снежного покрова и степень покрытия местности в баллах.